(225445) = 2000 DO36

Discovered at Socorro on 2000-02-29 by LINEAR.

Orbit

Orbit type: Main Belt

Note: WebGL enabled browser required.

epoch2024-03-31.0
epoch JD2460400.5
perihelion date2021-07-31.33763
perihelion JD2459426.83763
argument of perihelion (°)193.52146
ascending node (°)348.91096
inclination (°)2.13946
eccentricity0.1603982
perihelion distance (AU)1.9510227
Tisserand w.r.t. Jupiter3.6
ΔV w.r.t. Earth (km/sec)8.7
semimajor axis (AU)2.3237478
mean anomaly (°)270.91232
mean daily motion (°/day)0.27824050
aphelion distance (AU)2.696
period (years)3.54
P-vector [x]-0.99906763
P-vector [y]-0.03531996
P-vector [z]-0.02482670
Q-vector [x]0.04257122
Q-vector [y]-0.90160696
Q-vector [z]-0.43045626
absolute magnitude17.41
phase slope0.15
uncertainty0
referenceMPEC 2024-E02
observations used378
oppositions15
arc length (days)8697
first opposition used2000
last opposition used2023
residual rms (arc-secs)0.76
perturbers coarse indicatorM-v
perturbers precise indicator003Ek
first observation date used2000-02-11.0
last observation date used2023-12-04.0
computer nameMPCLINUX
JD of orbit computation2456760.842231
perihelion JD uncertainty (days)5.5822E-05
argument of perihelion uncertainty (°)1.0651E-04
ascending node uncertainty (°)1.0559E-04
inclination uncertainty (°)5.0796E-06
eccentricity uncertainty 6.1229E-08
perihelion distance uncertainty (AU)1.4388E-07
Minimum Orbit Intersection Distances (in AU)
for orbit epoch: 2460400.5, reference: E2024-E02
Mercury1.54233
Venus1.23326
Earth0.95396
Mars0.30076
Jupiter2.26098
Saturn6.60652
Uranus16.4645
Neptune27.1597

Observations

384 total observations over interval: 2000 02 11.33069 – 2023 12 04.257060
These data are available for download (format description).

Date (UT) J2000 RA J2000 Dec Magn Location Ref
2000 02 11.33069 10 37 47.40 +10 09 52.7 19.4   704 – Lincoln Laboratory ETS, New Mexico MPS 12267
2000 02 11.34509 10 37 46.64 +10 09 57.2 19.1   704 – Lincoln Laboratory ETS, New Mexico MPS 12267
2000 02 11.35948 10 37 45.92 +10 09 57.9 18.9   704 – Lincoln Laboratory ETS, New Mexico MPS 12267
2000 02 11.37391 10 37 45.11 +10 10 02.2 19.0   704 – Lincoln Laboratory ETS, New Mexico MPS 12267
2000 02 29.24168 10 20 51.19 +11 19 30.1 19.0   704 – Lincoln Laboratory ETS, New Mexico MPS 11196
2000 02 29.25503 10 20 50.39 +11 19 32.9 19.2   704 – Lincoln Laboratory ETS, New Mexico MPS 11196
2000 02 29.26837 10 20 49.53 +11 19 35.5 19.4   704 – Lincoln Laboratory ETS, New Mexico MPS 11196
2000 02 29.28171 10 20 48.68 +11 19 39.3 19.2   704 – Lincoln Laboratory ETS, New Mexico MPS 11196
2000 02 29.29507 10 20 47.89 +11 19 42.3 19.1   704 – Lincoln Laboratory ETS, New Mexico MPS 11196
2000 03 03.19737 10 17 59.87 +11 30 14.8 19.2   704 – Lincoln Laboratory ETS, New Mexico MPS 11196
2000 03 03.21065 10 17 59.04 +11 30 17.2 19.3   704 – Lincoln Laboratory ETS, New Mexico MPS 11196
2000 03 03.22393 10 17 58.28 +11 30 21.9 19.3   704 – Lincoln Laboratory ETS, New Mexico MPS 11196
2000 03 03.23718 10 17 57.46 +11 30 23.7 19.4   704 – Lincoln Laboratory ETS, New Mexico MPS 11196
2000 03 03.25043 10 17 56.65 +11 30 26.4 19.6   704 – Lincoln Laboratory ETS, New Mexico MPS 11196
2000 03 05.29965 10 16 01.14 +11 37 25.1 18.9   704 – Lincoln Laboratory ETS, New Mexico MPS 11196
2000 03 05.31286 10 16 00.37 +11 37 28.6 19.3   704 – Lincoln Laboratory ETS, New Mexico MPS 11196
2000 03 05.32607 10 15 59.60 +11 37 30.2 19.4   704 – Lincoln Laboratory ETS, New Mexico MPS 11196
2000 03 05.33930 10 15 58.85 +11 37 32.4 19.7   704 – Lincoln Laboratory ETS, New Mexico MPS 11196
2000 03 05.35253 10 15 58.07 +11 37 35.3 19.5   704 – Lincoln Laboratory ETS, New Mexico MPS 11196
2000 03 11.23181 10 10 52.23 +11 54 54.5 19.1 R 699 – Lowell Observatory-LONEOS MPS 11196
2000 03 11.25541 10 10 51.06 +11 54 58.1   699 – Lowell Observatory-LONEOS MPS 11196
2000 03 11.27899 10 10 49.84 +11 55 00.8   699 – Lowell Observatory-LONEOS MPS 11196
2000 03 11.30261 10 10 48.64 +11 55 05.2   699 – Lowell Observatory-LONEOS MPS 11196
2000 04 08.14088 10 00 46.95 +12 01 02.6 21.2 V 691 – Steward Observatory, Kitt Peak-Spacewatch MPS 12267
2000 04 08.16324 10 00 47.07 +12 00 59.8 21.3 V 691 – Steward Observatory, Kitt Peak-Spacewatch MPS 12267
2000 04 08.18576 10 00 47.22 +12 00 57.0 21.1 V 691 – Steward Observatory, Kitt Peak-Spacewatch MPS 12267
2000 04 10.13525 10 01 07.25 +11 56 14.7 21.2 V 691 – Steward Observatory, Kitt Peak-Spacewatch MPS 12268
2000 04 10.15635 10 01 07.38 +11 56 11.6 21.1 V 691 – Steward Observatory, Kitt Peak-Spacewatch MPS 12268
2000 04 10.17785 10 01 07.62 +11 56 08.5 21.3 V 691 – Steward Observatory, Kitt Peak-Spacewatch MPS 12268
2005 09 12.352737 00 53 25.593 +06 44 03.67 21.56 V 645 – Apache Point-Sloan Digital Sky Survey MPS 390332
2005 09 12.356209 00 53 25.425 +06 44 02.95 22.38   645 – Apache Point-Sloan Digital Sky Survey MPS 390332
2005 09 30.27889 00 37 32.19 +05 19 12.6 20.3 V G96 – Mt. Lemmon Survey MPS 143321
2005 09 30.28492 00 37 31.83 +05 19 10.5 20.7 V G96 – Mt. Lemmon Survey MPS 143321
2005 09 30.29099 00 37 31.47 +05 19 08.5 20.8 V G96 – Mt. Lemmon Survey MPS 143321
2005 09 30.29707 00 37 31.15 +05 19 06.5 20.2 V G96 – Mt. Lemmon Survey MPS 143321
2005 10 01.16331 00 36 41.17 +05 14 26.2 21.1 V 691 – Steward Observatory, Kitt Peak-Spacewatch MPS 143321
2005 10 01.18416 00 36 39.95 +05 14 20.3 21.4 V 691 – Steward Observatory, Kitt Peak-Spacewatch MPS 143321
2005 10 01.20499 00 36 38.70 +05 14 13.3 21.4 V 691 – Steward Observatory, Kitt Peak-Spacewatch MPS 143321
2006 12 23.43435 09 46 42.78 +16 00 52.2 20.4 V G96 – Mt. Lemmon Survey MPS 191776
2006 12 23.44524 09 46 42.88 +16 00 51.5 20.3 V G96 – Mt. Lemmon Survey MPS 191776
2006 12 23.45385 09 46 42.99 +16 00 51.4 20.2 V G96 – Mt. Lemmon Survey MPS 191776
2006 12 23.46237 09 46 43.10 +16 00 50.7 20.3 V G96 – Mt. Lemmon Survey MPS 191776
2007 01 17.35352 09 41 23.79 +16 27 28.3 19.8 V 691 – Steward Observatory, Kitt Peak-Spacewatch MPS 196279
2007 01 17.37084 09 41 23.06 +16 27 31.2 20.0 V 691 – Steward Observatory, Kitt Peak-Spacewatch MPS 196279
2007 01 17.38823 09 41 22.37 +16 27 34.1 20.0 V 691 – Steward Observatory, Kitt Peak-Spacewatch MPS 196279
2007 01 24.37074 09 36 07.84 +16 49 36.4 20.0 V 703 – Catalina Sky Survey MPS 196944
2007 01 24.37729 09 36 07.52 +16 49 38.4 19.7 V 703 – Catalina Sky Survey MPS 196944
2007 01 24.38387 09 36 07.12 +16 49 39.3 19.4 V 703 – Catalina Sky Survey MPS 196944
2007 01 24.39041 09 36 06.84 +16 49 41.7 19.2 V 703 – Catalina Sky Survey MPS 196944
2007 01 26.32568 09 34 25.87 +16 56 27.2 19.9 V 691 – Steward Observatory, Kitt Peak-Spacewatch MPS 196944
2007 01 26.32842 09 34 25.73 +16 56 27.9 19.8 V 691 – Steward Observatory, Kitt Peak-Spacewatch MPS 196944
2007 01 26.34373 09 34 24.86 +16 56 31.1 19.9 V 691 – Steward Observatory, Kitt Peak-Spacewatch MPS 196944
2007 01 26.34622 09 34 24.73 +16 56 31.6 19.8 V 691 – Steward Observatory, Kitt Peak-Spacewatch MPS 196944
2007 01 26.36155 09 34 23.84 +16 56 34.9 19.9 V 691 – Steward Observatory, Kitt Peak-Spacewatch MPS 196944
2007 01 26.36403 09 34 23.71 +16 56 35.5 19.8 V 691 – Steward Observatory, Kitt Peak-Spacewatch MPS 196944
2007 02 06.40308 09 23 27.92 +17 36 58.8 19.4 V G96 – Mt. Lemmon Survey MPS 198607
2007 02 06.40985 09 23 27.49 +17 37 00.3 19.3 V G96 – Mt. Lemmon Survey MPS 198607
2007 02 06.41652 09 23 27.02 +17 37 01.8 19.4 V G96 – Mt. Lemmon Survey MPS 198607
2007 02 06.42323 09 23 26.59 +17 37 03.2 19.4 V G96 – Mt. Lemmon Survey MPS 198607
2007 02 07.36350 09 22 27.20 +17 40 26.0 19.3 R 644 – Palomar Mountain/NEAT MPS 198607
2007 02 07.38381 09 22 25.86 +17 40 30.4 19.9 R 644 – Palomar Mountain/NEAT MPS 198607
2007 02 07.40898 09 22 24.19 +17 40 35.5 19.3 R 644 – Palomar Mountain/NEAT MPS 198607
2007 02 08.30182 09 21 27.73 +17 43 45.6 19.1 R 644 – Palomar Mountain/NEAT MPS 199397
2007 02 08.32217 09 21 26.35 +17 43 49.9 19.3 R 644 – Palomar Mountain/NEAT MPS 199397
2007 02 08.34372 09 21 24.93 +17 43 54.7 19.5 R 644 – Palomar Mountain/NEAT MPS 199397
2007 02 10.30675 09 19 19.93 +17 50 42.1 19.6 R 644 – Palomar Mountain/NEAT MPS 199397
2007 02 10.32817 09 19 18.49 +17 50 47.3 19.4 R 644 – Palomar Mountain/NEAT MPS 199397
2007 02 10.34847 09 19 17.14 +17 50 50.9 19.1 R 644 – Palomar Mountain/NEAT MPS 199397
2007 02 13.30503 09 16 09.71 +18 00 35.1 18.9   704 – Lincoln Laboratory ETS, New Mexico MPS 199397
2007 02 13.31614 09 16 09.07 +18 00 36.4 19.0   704 – Lincoln Laboratory ETS, New Mexico MPS 199397
2007 02 13.32725 09 16 08.23 +18 00 36.9 20.1   704 – Lincoln Laboratory ETS, New Mexico MPS 199397
2007 02 13.33844 09 16 07.54 +18 00 40.4 19.7   704 – Lincoln Laboratory ETS, New Mexico MPS 199397
2007 02 13.34955 09 16 06.79 +18 00 43.1 19.7   704 – Lincoln Laboratory ETS, New Mexico MPS 199397
2007 02 14.48107 09 14 55.89 +18 04 15.6 19.8 r 568 – Maunakea MPS 260482
2007 02 14.51467 09 14 53.69 +18 04 21.6 19.8 r 568 – Maunakea MPS 260482
2007 02 14.54775 09 14 51.54 +18 04 27.3 19.7 r 568 – Maunakea MPS 260482
2007 02 15.36403 09 14 01.03 +18 06 54.2 19.8 V 703 – Catalina Sky Survey MPS 199397
2007 02 15.37181 09 14 00.52 +18 06 54.7 19.8 V 703 – Catalina Sky Survey MPS 199397
2007 02 15.37964 09 14 00.02 +18 06 55.1 20.4 V 703 – Catalina Sky Survey MPS 199397
2007 02 15.38747 09 13 59.41 +18 06 57.7 20.3 V 703 – Catalina Sky Survey MPS 199397
2007 02 15.49201 09 13 53.11 +18 07 18.1 19.8 r 568 – Maunakea MPS 260482
2007 02 16.24623 09 13 07.23 +18 09 28.9 20.2 R 644 – Palomar Mountain/NEAT MPS 200247
2007 02 16.26692 09 13 05.89 +18 09 32.0 20.0 R 644 – Palomar Mountain/NEAT MPS 200247
2007 02 16.28768 09 13 04.59 +18 09 36.0 20.0 R 644 – Palomar Mountain/NEAT MPS 200247
2007 03 10.23249 08 56 25.36 +18 40 10.0 20.4 V G96 – Mt. Lemmon Survey MPS 202855
2007 03 10.24086 08 56 25.15 +18 40 09.8 20.2 V G96 – Mt. Lemmon Survey MPS 202855
2007 03 10.24926 08 56 24.90 +18 40 09.6 20.4 V G96 – Mt. Lemmon Survey MPS 202855
2007 03 10.25760 08 56 24.68 +18 40 09.5 20.2 V G96 – Mt. Lemmon Survey MPS 202855
